KLM31K EHAM-EKCH

Flight info

Callsign KLM31K
Flight time 0h 55m
Altitude 35000
Route ANDIK DCT JUIST DCT DOSUR DCT TALSA P729 TUDLO
Aircraft B738/M-SDE2E3FGHIRWXY/LB1

Departure

Time 2026-05-04 16:20
Airport Amsterdam Airport Schiphol (EHAM)

Arrival

Time 2026-05-04 17:16
Airport Copenhagen Kastrup Airport (EKCH)
Time Latitude Longitude Altitude Speed Heading
2026-05-04 15:38 52.30791 4.77165 -2 ft 0 kts 183°
2026-05-04 15:56 52.30796 4.77166 -2 ft 4 kts 185°
2026-05-04 15:57 52.30822 4.77176 -2 ft 4 kts 192°
2026-05-04 15:57 52.30837 4.77171 -2 ft 4 kts 127°
2026-05-04 15:57 52.30844 4.77141 -2 ft 1 kts 108°
2026-05-04 16:02 52.30843 4.77149 -2 ft 2 kts 102°
2026-05-04 16:02 52.30843 4.77188 -2 ft 5 kts 88°
2026-05-04 16:02 52.30837 4.77382 -2 ft 10 kts 93°
2026-05-04 16:03 52.30833 4.77496 -2 ft 10 kts 94°
2026-05-04 16:03 52.30853 4.77593 -2 ft 10 kts 27°
2026-05-04 16:03 52.30920 4.77612 -2 ft 10 kts
2026-05-04 16:03 52.31004 4.77620 -2 ft 15 kts
2026-05-04 16:04 52.31117 4.77630 -2 ft 18 kts
2026-05-04 16:04 52.31377 4.77655 -2 ft 18 kts
2026-05-04 16:04 52.31491 4.77589 -2 ft 18 kts 318°
2026-05-04 16:05 52.31566 4.77438 -2 ft 17 kts 290°
2026-05-04 16:05 52.31574 4.77243 -2 ft 18 kts 267°
2026-05-04 16:05 52.31556 4.76738 -2 ft 26 kts 266°
2026-05-04 16:06 52.31546 4.76450 -2 ft 24 kts 266°
2026-05-04 16:06 52.31519 4.75677 -2 ft 22 kts 267°
2026-05-04 16:07 52.31511 4.75435 -2 ft 21 kts 267°
2026-05-04 16:07 52.31507 4.75276 -2 ft 0 kts 268°
2026-05-04 16:08 52.31500 4.75104 -2 ft 16 kts 267°
2026-05-04 16:09 52.31484 4.74630 -2 ft 21 kts 266°
2026-05-04 16:09 52.31564 4.74301 -2 ft 18 kts
2026-05-04 16:10 52.31876 4.74328 -2 ft 25 kts
2026-05-04 16:11 52.32041 4.73932 -3 ft 19 kts 273°
2026-05-04 16:11 52.32048 4.73712 -2 ft 20 kts 273°
2026-05-04 16:12 52.32263 4.73110 -2 ft 21 kts 319°
2026-05-04 16:12 52.32624 4.72603 -2 ft 23 kts 319°
2026-05-04 16:13 52.32835 4.72230 -2 ft 23 kts 311°
2026-05-04 16:13 52.33055 4.71824 -2 ft 24 kts 311°
2026-05-04 16:14 52.33093 4.71446 -2 ft 19 kts 219°
2026-05-04 16:14 52.32906 4.71177 -2 ft 16 kts 221°
2026-05-04 16:15 52.32862 4.71062 -2 ft 0 kts 263°
2026-05-04 16:18 52.32862 4.71061 -2 ft 0 kts 263°
2026-05-04 16:18 52.32862 4.71053 -2 ft 2 kts 264°
2026-05-04 16:19 52.33213 4.70924 -5 ft 78 kts
2026-05-04 16:19 52.35004 4.71083 517 ft 144 kts
2026-05-04 16:20 52.38222 4.71383 2538 ft 171 kts
2026-05-04 16:20 52.40956 4.71630 3152 ft 222 kts
2026-05-04 16:21 52.44936 4.76442 4229 ft 269 kts 46°
2026-05-04 16:22 52.47533 4.81015 5683 ft 274 kts 46°
2026-05-04 16:22 52.51590 4.88014 7929 ft 287 kts 46°
2026-05-04 16:23 52.55850 4.95275 10233 ft 299 kts 45°
2026-05-04 16:24 52.62334 5.06293 11936 ft 356 kts 45°
2026-05-04 16:25 52.65793 5.12189 13492 ft 363 kts 44°
2026-05-04 16:26 52.72986 5.24475 16285 ft 380 kts 45°
2026-05-04 16:26 52.78576 5.34063 18317 ft 393 kts 45°
2026-05-04 16:27 52.82396 5.40638 19512 ft 400 kts 45°
2026-05-04 16:28 52.88253 5.50749 21170 ft 415 kts 44°
2026-05-04 16:28 52.94355 5.61328 22659 ft 430 kts 44°
2026-05-04 16:29 53.02765 5.75991 24501 ft 447 kts 44°
2026-05-04 16:30 53.09266 5.87387 25689 ft 459 kts 45°
2026-05-04 16:31 53.13692 5.95176 26384 ft 468 kts 44°
2026-05-04 16:31 53.20471 6.07154 27533 ft 478 kts 45°
2026-05-04 16:32 53.27381 6.19423 28489 ft 490 kts 46°
2026-05-04 16:33 53.32075 6.27796 29126 ft 496 kts 46°
2026-05-04 16:33 53.36819 6.36285 29766 ft 502 kts 46°
2026-05-04 16:34 53.41609 6.44887 30314 ft 508 kts 46°
2026-05-04 16:34 53.44020 6.49227 30628 ft 509 kts 46°
2026-05-04 16:35 53.51181 6.62169 32067 ft 498 kts 46°
2026-05-04 16:35 53.58203 6.74926 33396 ft 491 kts 45°
2026-05-04 16:36 53.60514 6.79138 33830 ft 489 kts 45°
2026-05-04 16:36 53.65088 6.87498 34461 ft 487 kts 45°
2026-05-04 16:37 53.69658 6.95878 35017 ft 486 kts 45°
2026-05-04 16:37 53.71959 7.00107 34999 ft 490 kts 45°
2026-05-04 16:38 53.81100 7.16989 35026 ft 482 kts 45°
2026-05-04 16:39 53.92352 7.37930 35004 ft 479 kts 45°
2026-05-04 16:40 54.01289 7.54691 35025 ft 479 kts 45°
2026-05-04 16:41 54.12483 7.75849 35007 ft 483 kts 46°
2026-05-04 16:43 54.23705 7.97248 35031 ft 485 kts 46°
2026-05-04 16:43 54.30431 8.10167 35004 ft 484 kts 46°
2026-05-04 16:45 54.43804 8.36054 35008 ft 482 kts 46°
2026-05-04 16:46 54.54832 8.57613 34990 ft 478 kts 47°
2026-05-04 16:47 54.63523 8.74738 35007 ft 475 kts 46°
2026-05-04 16:48 54.72207 8.91969 34999 ft 476 kts 47°
2026-05-04 16:49 54.80870 9.09286 34997 ft 476 kts 47°
2026-05-04 16:50 54.84908 9.18374 34989 ft 478 kts 60°
2026-05-04 16:50 54.87229 9.27167 34987 ft 478 kts 66°
2026-05-04 16:51 54.91116 9.43050 35013 ft 479 kts 66°
2026-05-04 16:51 54.93770 9.53720 34690 ft 484 kts 66°
2026-05-04 16:52 54.96463 9.64475 33417 ft 484 kts 66°
2026-05-04 16:52 54.97805 9.69841 32775 ft 482 kts 66°
2026-05-04 16:53 55.00439 9.80421 31836 ft 471 kts 66°
2026-05-04 16:53 55.04278 9.95942 30440 ft 460 kts 65°
2026-05-04 16:54 55.05535 10.01047 29980 ft 456 kts 65°
2026-05-04 16:55 55.10442 10.21098 28030 ft 441 kts 65°
2026-05-04 16:55 55.12815 10.30862 27089 ft 433 kts 65°
2026-05-04 16:56 55.15121 10.40390 26213 ft 425 kts 65°
2026-05-04 16:56 55.18535 10.54577 24873 ft 416 kts 65°
2026-05-04 16:57 55.19648 10.59218 24443 ft 413 kts 65°
2026-05-04 16:57 55.21855 10.68459 23547 ft 410 kts 65°
2026-05-04 16:58 55.25114 10.82171 22117 ft 402 kts 66°
2026-05-04 16:58 55.26167 10.86622 21687 ft 399 kts 66°
2026-05-04 16:59 55.28274 10.95557 20829 ft 394 kts 66°
2026-05-04 17:00 55.32685 11.13087 18840 ft 393 kts 61°
2026-05-04 17:00 55.36413 11.25774 17466 ft 388 kts 61°
2026-05-04 17:01 55.38838 11.34178 16597 ft 382 kts 61°
2026-05-04 17:01 55.41206 11.42489 15758 ft 377 kts 61°
2026-05-04 17:02 55.43531 11.50706 14936 ft 373 kts 62°
2026-05-04 17:02 55.45821 11.58829 14122 ft 368 kts 62°
2026-05-04 17:03 55.46956 11.62866 13704 ft 367 kts 62°
2026-05-04 17:03 55.48084 11.66885 13257 ft 365 kts 62°
2026-05-04 17:03 55.50312 11.74847 12425 ft 359 kts 62°
2026-05-04 17:04 55.52502 11.82698 11619 ft 354 kts 62°
2026-05-04 17:04 55.54652 11.90430 10838 ft 349 kts 62°
2026-05-04 17:05 55.56755 11.98021 10368 ft 333 kts 62°
2026-05-04 17:05 55.58744 12.05228 9980 ft 323 kts 62°
2026-05-04 17:06 55.60708 12.12352 9475 ft 322 kts 62°
2026-05-04 17:06 55.61684 12.15904 9221 ft 321 kts 62°
2026-05-04 17:07 55.63589 12.22857 8590 ft 308 kts 62°
2026-05-04 17:07 55.64215 12.25149 8326 ft 303 kts 62°
2026-05-04 17:07 55.65418 12.29553 7810 ft 297 kts 62°
2026-05-04 17:07 55.66313 12.32833 7436 ft 295 kts 62°
2026-05-04 17:08 55.67200 12.36089 7075 ft 292 kts 62°
2026-05-04 17:08 55.68942 12.42546 6345 ft 289 kts 63°
2026-05-04 17:08 55.69745 12.45838 5983 ft 293 kts 65°
2026-05-04 17:09 55.70540 12.49174 5713 ft 294 kts 65°
2026-05-04 17:09 55.71327 12.52500 5456 ft 291 kts 65°
2026-05-04 17:09 55.72102 12.55793 5180 ft 288 kts 65°
2026-05-04 17:10 55.73617 12.62265 4691 ft 280 kts 65°
2026-05-04 17:10 55.75689 12.71250 4041 ft 241 kts 65°
2026-05-04 17:11 55.76301 12.73945 3728 ft 230 kts 65°
2026-05-04 17:11 55.76873 12.76516 3442 ft 219 kts 68°
2026-05-04 17:11 55.76229 12.81509 3041 ft 223 kts 140°
2026-05-04 17:12 55.74865 12.82673 3003 ft 216 kts 176°
2026-05-04 17:12 55.71987 12.81634 2548 ft 214 kts 218°
2026-05-04 17:13 55.69130 12.76961 1767 ft 163 kts 224°
2026-05-04 17:14 55.66670 12.73158 1149 ft 149 kts 226°
2026-05-04 17:14 55.65906 12.71979 952 ft 143 kts 226°
2026-05-04 17:14 55.64435 12.69698 572 ft 137 kts 225°
2026-05-04 17:15 55.63718 12.68572 377 ft 138 kts 225°
2026-05-04 17:15 55.62259 12.66311 34 ft 137 kts 220°
2026-05-04 17:16 55.61306 12.64802 27 ft 48 kts 237°
2026-05-04 17:16 55.61294 12.64127 23 ft 16 kts 28°
2026-05-04 17:17 55.61386 12.64232 24 ft 15 kts 32°
2026-05-04 17:17 55.61645 12.64527 24 ft 15 kts 33°
2026-05-04 17:18 55.61752 12.64556 25 ft 17 kts 349°
2026-05-04 17:18 55.62012 12.64469 23 ft 18 kts 349°
2026-05-04 17:19 55.62137 12.64430 24 ft 11 kts 350°
2026-05-04 17:19 55.62314 12.64195 20 ft 18 kts 303°
2026-05-04 17:20 55.62475 12.63814 21 ft 17 kts 326°
2026-05-04 17:20 55.62625 12.63788 23 ft 8 kts 22°
2026-05-04 17:20 55.62673 12.63837 23 ft 8 kts 32°
2026-05-04 17:21 55.62792 12.63974 23 ft 11 kts 37°
2026-05-04 17:21 55.62869 12.64062 23 ft 3 kts 12°
2026-05-04 17:22 55.62879 12.64065 23 ft 0 kts 11°